Temperature
6 6 6 6 6 6 6 6 6 6 6 6 6 6 6 6 6 6 6 6 6 6 6 6 5 5 5 5 5 5 4 4 3 4 4 4 4 4 4 4 4 4 5
5 5 5 5 5 6 6 6 6 6 6 5 5 6 6 6 6 6 6 5 5 5 5 5 5 5 5 5 4 4 4 4 3 3 4 4 4 4 4 4 4 4 4
5 5 5 5 5 5 5 5 5 5 5 5 5 5 5 5 5 5 5 5 5 5 5 5 5 5 5 4 4 4 4 3 3 3 3 3 3 3 3 4 4 4 4
4 4 4 4 4 4 4 4 5 5 5 5 5 5 5 5 5 5 5 5 5 5 5 5 4 4 4 4 4 4 3 3 3 3 3 3 3 3 3 3 3 4 4
4 4 4 4 4 4 4 4 4 4 4 4 4 4 4 4 4 4 4 4 4 4 4 4 4 4 4 4 4 4 3 3 3 3 2 2 2 2 2 3 3 3 3
3 3 3 3 3 3 3 3 3 3 4 4 4 4 4 4 4 4 4 3 3 3 4 4 4 4 4 4 4 3 3 3 2 2 2 2 2 2 2 2 2 2 2
3 3 3 3 3 3 3 3 3 3 3 3 3 3 4 4 3 3 3 3 3 3 3 3 4 3 3 3 3 3 3 2 2 2 2 2 2 2 2 2 1 2 2
2 2 2 2 2 2 2 2 2 2 2 2 3 3 3 3 3 3 2 2 3 3 3 3 3 3 3 3 3 3 3 3 2 2 2 2 2 2 1 1 1 1 2
2 2 2 2 2 2 2 2 2 2 2 2 2 2 2 2 2 2 2 2 2 2 2 2 2 2 2 2 2 2 2 2 2 2 2 2 2 2 1 1 1 1 1
1 1 1 1 1 1 1 1 1 1 1 1 1 1 1 1 1 1 1 1 2 2 2 2 2 2 2 2 2 2 2 2 2 2 2 2 2 1 1 1 1 1 1
0 0 1 1 1 1 1 1 1 1 1 1 1 1 1 1 1 1 1 1 1 1 1 1 1 1 1 1 1 1 1 2 2 2 2 2 2 2 2 1 1 1 1
-0 -0 0 0 0 0 0 0 0 0 0 0 0 0 0 0 0 0 0 0 0 0 0 1 1 1 1 1 1 1 1 1 1 1 1 1 2 2 2 1 1 1 1
-1 -1 -0 -0 -0 -0 -0 -0 -0 -0 -0 -0 -0 -0 -0 -0 -0 -0 -0 -0 -0 -0 0 0 0 1 1 1 1 1 1 1 1 1 1 1 1 1 1 1 1 1 1
-1 -1 -1 -1 -1 -1 -1 -1 -1 -1 -1 -1 -1 -1 -1 -1 -1 -1 -1 -1 -1 -1 -0 0 0 0 1 1 1 1 1 1 1 1 1 1 1 1 1 1 1 1 1
-2 -2 -2 -2 -2 -2 -2 -2 -2 -2 -2 -2 -2 -2 -2 -1 -1 -1 -1 -1 -1 -1 -1 -0 -0 0 0 1 1 1 0 0 0 0 0 0 0 1 1 1 1 1 1
-2 -2 -2 -2 -2 -2 -2 -2 -2 -2 -2 -2 -2 -2 -2 -2 -2 -2 -2 -2 -2 -1 -1 -1 -1 -0 -0 -0 0 0 0 0 0 0 -0 -0 0 0 0 0 0 0 0
-3 -3 -3 -3 -3 -3 -3 -3 -2 -2 -2 -2 -2 -2 -2 -2 -2 -2 -2 -2 -2 -2 -2 -1 -1 -1 -1 -1 -1 -1 -0 -0 -0 -0 -0 -0 -0 0 0 0 0 0 0
-3 -3 -3 -3 -3 -3 -3 -3 -3 -3 -3 -3 -3 -3 -3 -2 -2 -2 -2 -2 -2 -2 -2 -2 -2 -2 -1 -1 -1 -1 -1 -1 -1 -1 -1 -1 -0 -0 -0 -0 -0 -0 -0
-4 -4 -4 -4 -4 -4 -4 -4 -4 -4 -3 -3 -3 -3 -3 -3 -3 -3 -3 -3 -3 -3 -2 -2 -2 -2 -2 -2 -2 -1 -1 -1 -1 -1 -1 -1 -1 -1 -0 -0 -0 -0 -0
-4 -4 -4 -4 -4 -4 -4 -4 -4 -4 -4 -4 -4 -3 -3 -3 -3 -3 -3 -3 -3 -3 -3 -3 -3 -2 -2 -2 -2 -2 -2 -2 -1 -1 -1 -1 -1 -1 -1 -1 -1 -1 -1
-5 -5 -5 -5 -5 -5 -5 -5 -5 -5 -5 -4 -4 -4 -4 -4 -4 -4 -4 -4 -4 -3 -3 -3 -3 -3 -3 -2 -2 -2 -2 -2 -2 -2 -2 -1 -1 -1 -1 -1 -1 -1 -1
-6 -6 -5 -5 -5 -5 -5 -5 -5 -5 -5 -5 -5 -4 -4 -4 -4 -4 -4 -4 -4 -4 -4 -4 -3 -3 -3 -3 -3 -2 -2 -2 -2 -2 -2 -2 -2 -1 -1 -1 -1 -1 -1
-6 -6 -6 -6 -6 -6 -6 -6 -6 -6 -6 -5 -5 -5 -5 -5 -5 -4 -4 -4 -4 -4 -4 -4 -4 -3 -3 -3 -3 -3 -3 -2 -2 -2 -2 -2 -2 -2 -2 -2 -1 -1 -1
-7 -7 -7 -6 -6 -6 -6 -6 -6 -6 -6 -6 -6 -6 -6 -5 -5 -5 -5 -4 -4 -4 -4 -4 -4 -4 -4 -3 -3 -3 -3 -3 -3 -2 -2 -2 -2 -2 -2 -2 -2 -2 -2
-7 -7 -7 -7 -7 -7 -7 -7 -7 -6 -6 -6 -6 -6 -6 -6 -6 -5 -5 -5 -5 -5 -4 -4 -4 -4 -4 -4 -3 -3 -3 -3 -3 -3 -2 -2 -2 -2 -2 -2 -2 -2 -2
-8 -8 -8 -8 -7 -7 -7 -7 -7 -7 -7 -7 -7 -6 -6 -6 -6 -6 -6 -5 -5 -5 -5 -5 -4 -4 -4 -4 -4 -3 -3 -3 -3 -3 -2 -2 -2 -2 -2 -2 -2 -2 -2
Wind_Speed
0 0 0 0 0 0 0 1 1 0 0 1 1 0 0 0 0 0 1 1 1 1 1 2 2 2 2 2 2 2 2 2 4 5 3 4 4 5 6 7 7 6 7
1 0 0 1 0 0 1 1 0 1 1 1 1 1 1 1 1 1 1 1 1 2 2 2 3 2 2 2 2 3 3 2 3 6 5 4 4 5 4 5 5 6 6
1 1 1 1 1 1 1 1 1 1 1 1 1 1 1 1 1 2 1 1 2 2 2 2 3 2 3 3 3 3 3 2 2 3 5 4 4 4 5 5 5 4 6
1 0 1 1 1 1 1 1 0 1 1 1 1 1 1 2 2 2 1 1 2 2 2 2 3 3 4 4 3 3 2 2 2 2 4 4 4 4 4 5 6 5 6
1 1 2 2 1 1 1 1 0 0 0 0 1 1 1 1 2 1 1 1 2 2 2 3 3 3 4 3 3 2 2 2 2 2 3 4 4 4 4 4 5 6 5
1 1 1 1 1 1 1 1 0 0 0 0 1 1 2 2 3 3 2 1 2 2 3 3 3 3 4 4 4 3 2 2 3 3 3 4 5 5 4 4 4 5 4
1 1 1 1 1 1 1 1 0 0 1 1 1 1 2 3 4 4 3 1 2 3 3 3 3 4 4 3 3 3 3 4 3 3 4 5 5 5 4 4 4 5 5
1 1 1 1 1 1 1 1 1 1 1 1 2 2 2 3 5 4 3 1 2 2 2 2 3 3 3 3 2 2 3 3 4 3 4 5 5 4 4 4 4 4 4
2 2 2 2 2 1 1 2 1 1 1 2 2 2 2 4 5 4 2 1 2 2 2 2 3 3 4 4 2 2 3 3 4 5 6 5 6 4 2 2 2 3 4
3 3 2 2 2 2 2 2 2 1 1 2 2 2 2 3 5 4 3 1 2 2 2 3 3 4 4 3 2 2 4 4 3 4 4 5 4 3 2 1 2 2 3
3 3 2 2 2 2 2 1 1 1 1 1 2 2 2 3 4 4 4 2 2 2 2 3 3 5 5 4 3 3 5 4 2 2 2 3 3 2 2 2 2 2 3
2 2 2 2 2 2 1 1 1 0 1 1 2 2 2 2 3 4 4 4 3 2 3 3 3 5 5 5 4 4 4 3 1 1 2 2 3 3 3 3 2 2 2
2 3 3 3 2 2 1 1 1 1 1 2 2 2 3 2 3 5 5 5 5 3 3 4 4 4 4 3 4 4 2 1 1 1 2 3 3 3 3 2 2 3 3
2 3 3 3 3 2 2 1 1 2 2 2 2 3 3 3 3 2 2 3 3 2 2 3 4 3 2 3 2 2 1 1 1 2 2 2 2 2 2 2 2 3 3
3 3 3 3 2 3 2 2 2 2 3 3 3 3 3 4 4 5 3 3 2 2 2 2 2 1 1 2 1 1 1 1 1 1 1 2 2 2 3 3 2 2 2
3 3 2 2 2 2 2 3 4 3 5 5 4 4 4 5 6 6 5 5 5 3 2 2 2 2 2 2 2 2 2 2 1 1 1 1 2 2 2 3 2 1 2
3 3 3 3 3 3 3 3 3 4 4 4 5 5 5 5 5 5 5 4 4 2 1 2 2 2 2 2 2 2 2 2 1 1 1 2 2 2 2 2 2 2 2
3 4 3 3 3 3 3 3 3 3 3 3 4 6 6 6 5 5 4 2 2 2 1 2 2 2 2 2 2 2 2 2 1 1 1 1 1 1 1 1 1 2 2
3 3 3 3 3 3 3 3 3 3 3 3 3 4 6 6 5 4 3 1 2 2 2 2 2 2 2 2 3 2 2 2 2 2 1 1 1 1 1 1 1 2 2
3 5 4 3 3 2 2 2 3 3 3 3 3 4 4 3 3 3 2 2 2 3 2 3 3 3 2 2 2 2 2 2 2 2 2 1 2 2 2 1 1 1 1
3 3 5 4 3 3 3 3 3 3 3 3 4 4 5 3 3 3 3 3 3 3 3 3 3 3 2 2 2 3 3 2 2 2 2 2 2 2 1 1 1 1 1
2 3 3 3 3 3 3 3 3 3 3 4 4 4 6 4 3 3 3 3 4 3 3 3 3 3 3 3 3 3 3 3 2 2 2 2 2 1 1 1 1 1 0
2 3 3 3 3 4 4 3 3 3 3 3 3 3 3 3 3 3 4 4 3 3 3 3 3 3 3 4 4 4 4 4 3 3 2 2 2 1 1 1 1 1 1
2 3 3 3 3 3 3 3 3 3 3 3 3 3 3 3 4 4 4 4 4 4 4 4 4 5 5 4 4 5 5 5 4 3 3 2 2 2 1 1 1 1 1
2 3 3 3 3 3 3 3 3 3 4 4 3 3 4 4 4 4 4 4 4 4 4 5 4 5 5 6 5 5 5 5 3 2 3 2 2 2 2 2 1 1 0
3 3 3 3 3 3 3 3 3 4 4 4 4 4 4 4 4 4 4 4 4 4 4 5 5 6 6 5 6 5 5 4 3 3 2 2 2 2 2 1 1 1 1
Wind_Direction
338 274 308 281 304 79 198 216 210 210 191 204 234 223 210 256 285 230 277 308 282 276 267 252 262 263 254 248 247 251 251 242 277 297 298 309 313 318 325 331 330 330 335
309 355 348 338 27 66 264 245 213 193 255 238 217 214 244 280 262 237 258 289 282 286 273 267 273 275 274 265 249 252 256 256 269 299 311 319 312 309 316 323 332 334 330
355 22 22 7 358 329 295 258 223 190 211 232 187 217 256 272 274 267 241 256 271 279 281 266 266 263 272 276 270 257 259 278 283 293 306 311 310 317 326 326 327 331 333
352 19 312 287 289 297 302 269 238 193 180 201 219 234 252 261 253 264 264 278 287 292 290 283 268 256 260 269 270 273 281 283 295 298 305 314 312 315 325 328 331 335 333
339 301 278 285 290 310 331 316 9 53 274 259 256 268 271 258 246 263 257 278 277 290 304 304 297 290 290 285 286 284 286 285 289 300 308 317 318 324 316 314 320 323 324
309 294 311 315 317 318 319 333 37 24 359 335 275 267 272 278 286 276 277 255 266 272 287 303 307 305 300 296 297 302 290 276 287 285 289 298 298 304 308 312 317 326 315
299 309 311 315 302 290 318 333 285 294 331 314 297 287 285 291 300 292 281 273 265 268 273 288 309 305 312 284 287 303 294 297 291 274 273 282 284 289 291 298 308 311 296
322 325 314 325 300 293 310 299 281 297 284 278 285 282 286 296 305 305 305 294 270 275 276 274 283 293 291 308 285 283 286 283 291 290 272 276 279 279 267 268 282 302 305
315 307 306 299 291 293 294 292 280 279 278 277 280 277 278 293 305 312 331 298 277 284 288 284 285 283 298 323 317 294 303 305 318 312 311 313 311 308 312 322 318 320 313
303 301 303 299 285 278 277 281 280 262 271 292 294 285 276 282 299 308 323 276 282 289 292 284 288 296 309 315 296 283 290 303 318 321 327 329 322 297 312 281 258 283 303
313 317 316 309 294 278 280 284 273 265 292 295 292 296 288 288 299 301 309 289 266 278 285 290 288 299 306 307 303 283 294 309 304 303 311 324 334 328 314 310 290 268 270
326 326 322 319 310 316 305 293 283 234 277 289 296 303 299 296 299 298 303 302 299 270 276 284 290 303 303 304 302 308 320 328 298 308 316 320 323 321 315 317 323 330 292
331 326 321 323 317 311 284 276 272 258 266 283 288 294 305 305 300 303 301 304 301 291 284 292 296 299 305 300 311 323 336 321 298 309 303 306 313 312 316 327 346 13 19
322 319 318 323 323 317 301 282 263 253 262 269 276 287 296 300 295 294 293 301 308 302 301 301 302 299 310 312 319 319 319 294 297 280 296 314 326 332 331 326 324 339 352
322 318 319 319 312 309 303 288 281 262 265 264 261 269 274 282 287 295 295 286 287 288 313 316 314 318 321 323 325 332 325 314 315 327 324 329 333 336 333 333 337 350 353
323 319 316 315 311 307 306 318 318 302 302 300 296 293 285 287 296 292 293 296 296 293 301 284 284 293 298 303 298 303 304 300 304 315 312 308 303 308 323 334 344 358 350
307 308 308 310 308 306 304 304 313 325 326 323 318 310 308 308 301 298 295 293 283 268 266 272 276 279 282 289 287 284 288 294 296 296 306 305 304 306 313 319 336 349 347
310 306 307 297 292 290 291 290 288 295 311 319 325 321 317 315 312 307 307 306 294 283 278 271 275 280 278 279 279 283 288 295 300 300 299 294 292 296 295 304 311 326 326
307 303 304 298 290 285 286 289 287 289 292 302 316 323 325 322 318 316 322 303 281 280 283 281 275 275 275 277 280 276 275 276 277 279 280 283 278 281 284 293 299 316 340
300 303 312 306 300 298 294 289 288 288 291 297 300 305 318 320 310 311 309 295 284 283 281 280 277 273 274 272 279 275 270 271 270 270 277 281 279 273 266 269 278 288 300
293 299 308 309 298 290 285 280 280 282 286 291 293 296 304 301 292 290 290 287 281 277 274 274 276 276 271 270 270 269 263 260 260 262 271 275 269 271 268 261 270 280 299
284 288 291 291 293 288 286 281 279 278 281 286 295 302 308 305 299 295 292 293 287 280 278 272 269 269 263 262 260 261 261 257 251 251 258 266 268 263 257 256 269 291 311
278 283 288 287 287 290 297 292 286 283 283 284 290 296 299 293 291 291 293 296 295 293 291 287 280 278 274 271 265 255 252 250 249 242 245 249 252 248 244 244 239 255 268
272 277 281 283 286 285 284 286 286 284 283 284 287 287 286 286 288 290 293 296 299 297 291 282 278 279 279 282 278 271 265 261 250 230 216 225 234 230 226 232 237 248 240
267 269 271 274 280 284 285 286 285 285 285 286 286 288 288 289 288 289 291 294 296 297 296 288 282 284 283 281 280 278 279 273 252 229 205 203 221 217 204 208 216 223 225
266 267 270 272 271 275 279 284 286 287 285 285 286 287 289 289 288 288 290 292 295 298 299 295 289 289 289 284 277 277 280 271 250 228 192 185 200 204 187 185 185 178 156
Height
1494 1495 1495 1496 1496 1497 1497 1498 1498 1498 1499 1499 1500 1500 1501 1501 1502 1502 1502 1502 1502 1502 1502 1502 1502 1502 1501 1501 1500 1500 1499 1498 1495 1491 1490 1488 1486 1484 1482 1480 1478 1475 1472
1492 1493 1493 1494 1494 1495 1495 1496 1496 1496 1496 1497 1497 1498 1498 1499 1499 1499 1499 1499 1499 1499 1499 1499 1499 1499 1498 1497 1497 1496 1495 1494 1492 1489 1487 1485 1483 1481 1479 1477 1475 1472 1470
1490 1490 1491 1492 1492 1492 1493 1493 1493 1494 1494 1494 1494 1495 1495 1496 1496 1496 1496 1496 1496 1496 1496 1496 1495 1495 1495 1494 1494 1493 1492 1491 1489 1487 1484 1482 1481 1479 1476 1474 1472 1470 1468
1488 1489 1489 1490 1490 1490 1491 1490 1490 1491 1491 1492 1492 1492 1493 1493 1493 1493 1493 1493 1493 1493 1493 1492 1492 1492 1491 1491 1490 1489 1488 1487 1486 1484 1481 1480 1478 1476 1474 1471 1468 1467 1465
1486 1487 1487 1488 1488 1488 1488 1488 1488 1488 1488 1489 1489 1490 1490 1490 1490 1490 1491 1490 1490 1490 1489 1489 1489 1488 1488 1488 1487 1486 1484 1483 1482 1480 1479 1477 1475 1473 1471 1469 1466 1464 1462
1484 1484 1484 1485 1485 1485 1486 1485 1485 1485 1485 1486 1486 1486 1487 1487 1487 1487 1487 1487 1487 1486 1486 1485 1485 1485 1485 1484 1484 1483 1482 1480 1479 1477 1476 1474 1472 1471 1469 1467 1465 1463 1459
1482 1482 1483 1483 1482 1483 1483 1483 1483 1483 1483 1483 1483 1483 1483 1484 1484 1484 1484 1484 1483 1483 1482 1482 1482 1481 1481 1481 1480 1479 1478 1477 1477 1475 1473 1471 1470 1469 1467 1465 1463 1461 1459
1480 1479 1480 1479 1480 1480 1480 1480 1480 1480 1480 1480 1480 1480 1480 1480 1480 1481 1480 1480 1480 1480 1479 1478 1478 1478 1478 1477 1476 1475 1474 1474 1473 1471 1470 1469 1468 1466 1465 1464 1462 1459 1457
1477 1477 1477 1477 1477 1477 1477 1477 1478 1478 1478 1478 1477 1477 1477 1477 1477 1477 1477 1477 1476 1476 1476 1475 1475 1474 1474 1474 1473 1472 1471 1470 1469 1468 1467 1466 1464 1463 1462 1460 1458 1456 1453
1475 1475 1474 1474 1475 1475 1475 1475 1475 1475 1475 1475 1474 1474 1474 1473 1474 1474 1474 1473 1473 1472 1472 1472 1472 1471 1471 1470 1469 1468 1467 1466 1465 1464 1464 1462 1461 1460 1459 1458 1456 1454 1452
1473 1472 1472 1472 1472 1472 1473 1473 1472 1472 1471 1471 1472 1471 1471 1471 1471 1471 1471 1470 1470 1469 1469 1469 1468 1468 1468 1467 1466 1465 1464 1463 1462 1461 1460 1459 1458 1457 1456 1455 1454 1452 1451
1471 1470 1470 1470 1470 1470 1469 1469 1469 1469 1468 1468 1468 1468 1468 1468 1467 1467 1467 1467 1467 1466 1466 1465 1465 1465 1464 1463 1462 1462 1461 1460 1459 1458 1457 1456 1454 1453 1453 1452 1451 1450 1449
1469 1468 1467 1467 1467 1467 1467 1466 1466 1466 1466 1465 1465 1464 1464 1464 1464 1464 1464 1464 1463 1463 1463 1462 1462 1461 1461 1460 1459 1459 1458 1457 1455 1454 1454 1453 1452 1451 1450 1449 1448 1447 1447
1467 1466 1465 1464 1464 1465 1464 1464 1463 1463 1463 1462 1462 1462 1461 1461 1461 1461 1460 1460 1460 1460 1459 1459 1459 1458 1457 1457 1456 1455 1454 1454 1453 1452 1451 1451 1450 1449 1448 1447 1446 1445 1444
1464 1464 1463 1463 1462 1462 1461 1461 1460 1460 1460 1460 1459 1459 1458 1458 1458 1458 1457 1457 1457 1456 1456 1455 1455 1454 1454 1453 1453 1452 1451 1451 1450 1450 1449 1448 1448 1447 1446 1445 1444 1443 1442
1462 1461 1461 1460 1460 1459 1458 1458 1458 1458 1457 1457 1456 1456 1456 1456 1455 1455 1454 1454 1454 1453 1453 1452 1451 1451 1450 1450 1449 1449 1448 1448 1448 1447 1447 1446 1446 1445 1444 1444 1443 1442 1441
1460 1459 1459 1458 1457 1456 1456 1455 1454 1454 1454 1454 1453 1453 1453 1452 1452 1451 1451 1451 1451 1450 1450 1449 1448 1448 1448 1447 1447 1446 1446 1446 1445 1445 1445 1444 1444 1443 1442 1442 1441 1440 1439
1458 1457 1456 1455 1455 1454 1453 1452 1452 1451 1451 1450 1450 1450 1450 1449 1449 1449 1448 1448 1447 1447 1446 1446 1446 1446 1445 1445 1444 1444 1444 1443 1443 1443 1442 1442 1442 1441 1441 1440 1440 1439 1438
1455 1454 1454 1453 1452 1451 1451 1450 1450 1449 1448 1447 1447 1447 1447 1447 1446 1446 1445 1445 1444 1444 1443 1443 1443 1443 1443 1442 1442 1441 1441 1441 1440 1440 1440 1440 1440 1440 1439 1439 1438 1438 1437
1452 1452 1451 1450 1449 1449 1448 1447 1447 1446 1446 1445 1444 1444 1444 1444 1443 1443 1442 1442 1441 1441 1441 1441 1440 1440 1440 1440 1439 1439 1439 1438 1438 1438 1438 1438 1438 1438 1438 1437 1437 1436 1436
1449 1448 1448 1447 1447 1446 1445 1445 1444 1444 1443 1442 1442 1442 1442 1441 1440 1440 1439 1439 1439 1438 1438 1438 1437 1437 1437 1437 1437 1436 1436 1436 1436 1436 1435 1436 1436 1436 1436 1436 1435 1435 1435
1446 1445 1445 1444 1444 1443 1443 1442 1441 1441 1440 1439 1439 1439 1438 1438 1437 1436 1436 1436 1436 1435 1435 1435 1435 1434 1434 1434 1434 1434 1434 1433 1433 1433 1433 1434 1434 1434 1434 1434 1434 1433 1433
1443 1442 1442 1441 1441 1440 1440 1439 1438 1438 1437 1436 1436 1435 1435 1434 1434 1433 1433 1432 1432 1432 1432 1432 1431 1431 1431 1431 1431 1431 1431 1431 1431 1431 1432 1432 1432 1432 1432 1432 1432 1432 1432
1439 1439 1438 1438 1437 1437 1437 1436 1435 1435 1434 1433 1433 1432 1432 1431 1431 1430 1429 1429 1429 1429 1428 1428 1428 1428 1428 1428 1428 1428 1429 1429 1429 1429 1430 1430 1430 1430 1430 1430 1430 1430 1430
1436 1436 1435 1435 1434 1434 1433 1433 1432 1432 1431 1430 1430 1429 1429 1428 1427 1427 1426 1426 1425 1425 1425 1425 1425 1425 1425 1425 1425 1425 1426 1426 1426 1427 1427 1428 1428 1428 1429 1429 1429 1429 1429
1433 1432 1432 1431 1431 1430 1430 1429 1429 1428 1428 1427 1427 1426 1426 1425 1424 1424 1423 1423 1422 1422 1422 1422 1422 1422 1422 1422 1423 1423 1423 1424 1424 1425 1425 1426 1427 1427 1427 1427 1427 1427 1428